Weather History for Salt Lake City, UT

Change the Weather History Date:

Monday, October 7, 2013

  Actual Average Record
Temperature  
Mean Temperature 60 °F 56 °F  
Max Temperature 76 °F 69 °F 88 °F (1979)
Min Temperature 43 °F 44 °F 31 °F (1955)
Degree Days  
Heating Degree Days 5 9  
Month to date heating degree days 81 55  
Since 1 July heating degree days 136 144  
Cooling Degree Days 0 0  
Month to date cooling degree days 0 5  
Year to date cooling degree days 1768 1158  
Growing Degree Days 10 (Base 50)    
Moisture  
Dew Point 34 °F    
Average Humidity 47    
Maximum Humidity 70    
Minimum Humidity 24    
Precipitation  
Precipitation 0.00 in 0.05 in 1.53 in (1993)
Month to date precipitation 0.15 0.33  
Year to date precipitation 8.76 12.05  
Snow  
Snow 0.00 in 0.00 in T in (1970)
Month to date snowfall T 0.1  
Since 1 July snowfall T 0.1  
Snow Depth 0.00 in    
Sea Level Pressure  
Sea Level Pressure 29.96 in    
Wind  
Wind Speed 7 mph (SSE)    
Max Wind Speed 14 mph    
Max Gust Speed 21 mph    
Visibility 10 miles    
Events      
T = Trace of Precipitation, MM = Missing Value Source: NWS Daily Summary

Daily Weather History Graph

Daily Weather History Graph

Search for Another Location

Airport:

Trip Planner

Search our weather history database for the weather conditions in past years. The results will help you decide how hot, cold, wet, or windy it might be!

Date:

Astronomy

Oct. 07, 2013 Rise Set
Actual Time 7:30 AM MDT 6:59 PM MDT
Civil Twilight 7:03 AM MDT 7:26 PM MDT
Nautical Twilight 6:31 AM MDT 7:58 PM MDT
Astronomical Twilight 5:59 AM MDT 8:30 PM MDT
Moon 10:26 AM MDT (10/7) 8:46 PM MDT (10/7)
Length of Visible Light 12h 23m
Length of Day
11h 28m
Waxing Crescent, 9% of the Moon is Illuminated
Oct 7
Waxing Crescent
Oct 11
First Quarter
Oct 18
Full
Oct 26
Last Quarter
Nov 3
New

Hourly Weather History & Observations

Time (MDT) Temp. Windchill Dew Point Humidity Pressure Visibility Wind Dir Wind Speed Gust Speed Precip Events Conditions
12:53 AM 50.0 °F - 35.1 °F 57% 30.14 in 10.0 mi Calm Calm - N/A   Partly Cloudy
1:53 AM 45.0 °F - 34.0 °F 65% 30.14 in 10.0 mi Calm Calm - N/A   Clear
2:53 AM 46.0 °F 44.8 °F 35.1 °F 66% 30.12 in 10.0 mi South 3.5 mph - N/A   Clear
3:53 AM 46.0 °F 43.9 °F 34.0 °F 63% 30.10 in 10.0 mi SE 4.6 mph - N/A   Partly Cloudy
4:53 AM 44.1 °F 40.8 °F 35.1 °F 71% 30.09 in 10.0 mi SE 5.8 mph - N/A   Clear
5:53 AM 45.0 °F 41.2 °F 33.1 °F 63% 30.08 in 10.0 mi SE 6.9 mph - N/A   Clear
6:53 AM 46.0 °F 41.9 °F 33.1 °F 61% 30.07 in 10.0 mi SSE 8.1 mph - N/A   Clear
7:53 AM 46.9 °F - 33.1 °F 59% 30.07 in 10.0 mi SE 10.4 mph - N/A   Scattered Clouds
8:53 AM 52.0 °F - 34.0 °F 50% 30.06 in 10.0 mi SE 8.1 mph - N/A   Scattered Clouds
9:53 AM 59.0 °F - 34.0 °F 39% 30.04 in 10.0 mi SE 8.1 mph - N/A   Scattered Clouds
10:53 AM 63.0 °F - 34.0 °F 34% 30.02 in 10.0 mi East 8.1 mph - N/A   Scattered Clouds
11:53 AM 66.9 °F - 30.9 °F 26% 29.99 in 10.0 mi SE 6.9 mph - N/A   Scattered Clouds
12:53 PM 73.0 °F - 32.0 °F 22% 29.94 in 10.0 mi West 6.9 mph - N/A   Scattered Clouds
1:53 PM 71.1 °F - 36.0 °F 28% 29.93 in 10.0 mi WNW 10.4 mph - N/A   Mostly Cloudy
2:53 PM 72.0 °F - 35.1 °F 26% 29.89 in 10.0 mi NW 6.9 mph - N/A   Mostly Cloudy
3:53 PM 69.1 °F - 37.9 °F 32% 29.88 in 10.0 mi WNW 9.2 mph - N/A   Mostly Cloudy
4:53 PM 69.1 °F - 37.0 °F 31% 29.87 in 10.0 mi WNW 8.1 mph - N/A   Mostly Cloudy
5:53 PM 66.9 °F - 37.0 °F 33% 29.86 in 10.0 mi WNW 6.9 mph - N/A   Mostly Cloudy
6:53 PM 62.1 °F - 36.0 °F 38% 29.86 in 10.0 mi Calm Calm - N/A   Mostly Cloudy
7:53 PM 60.1 °F - 35.1 °F 39% 29.85 in 10.0 mi SSE 5.8 mph - N/A   Mostly Cloudy
8:53 PM 59.0 °F - 34.0 °F 39% 29.82 in 10.0 mi SE 10.4 mph - N/A   Mostly Cloudy
9:53 PM 59.0 °F - 39.0 °F 48% 29.80 in 10.0 mi SE 10.4 mph - N/A   Mostly Cloudy
10:53 PM 62.1 °F - 34.0 °F 35% 29.76 in 10.0 mi ESE 10.4 mph - N/A   Mostly Cloudy
11:53 PM 64.0 °F - 30.0 °F 28% 29.74 in 10.0 mi SE 12.7 mph - N/A   Mostly Cloudy